Regional Weather Roundup
Issued by NWS Goodland, KS

Home | Current Version | Previous Version | Graphics & Text | Print | Product List | Glossary On
Versions: 1 2 3 4 5 6 7 8 9 10 11 12 13 14 15 16 17 18 19 20 21 22 23 24 25 26 27 28 29 30 31 32 33 34 35 36 37 38 39 40 41 42 43 44 45 46 47 48 49 50
000
ASUS43 KGLD 260259
RWRGLD

GOODLAND FORECAST AREA HOURLY WEATHER ROUNDUP
NATIONAL WEATHER SERVICE GOODLAND KS
900 PM MDT FRI JUL 25 2014

...OFFICIAL OBSERVATIONS...

CITY           SKY/WX    TMP DP  RH WIND       PRES   REMARKS
GOODLAND KS    PTCLDY    80  64  58 E7        29.96R
HILL CITY KS   PTCLDY    84  69  60 N7        29.84R
IMPERIAL NEB   CLOUDY    80  67  64 NW5       29.94R
MCCOOK NEB     MOCLDY    79  68  69 E3        29.87R
AKRON CO       MOCLDY    76  47  35 NE3       30.04R
BURLINGTON CO  MOCLDY    81  61  50 N3        30.00R
LIMON CO       MOCLDY    72  53  51 W7        30.13R
$$

...UNOFFICIAL OBSERVATIONS...

CITY           SKY/WX    TMP DP  RH WIND       PRES   REMARKS
COLBY KS       CLEAR     81  68  65 NE8       29.92R
GOVE KS          N/A     86  32  14 MISG        N/A
LENORA KS        N/A     81  32  17 MISG        N/A
NORTON KS      CLEAR     77  64  65 CALM      29.84R
SHARON SPRINGS   N/A     84  66  54 E6          N/A
TRENTON NEB      N/A     80  32  17 SE6         N/A
KIT CARSON CO    N/A     69  63  82 N37G49      N/A
YUMA CO          N/A     79  60  52 NE5         N/A
$$



USA.gov is the U.S. government's official web portal to all federal, state and local government web resources and services.